Tracking 26325 objects as of 28-Nov-2022
HD Live streaming from Space Station
objects crossing your sky now

WESTFORD NEEDLES

Track WESTFORD NEEDLES now!
10-day predictions
WESTFORD NEEDLES is classified as:


NORAD ID: 5702
Int'l Code: 1963-014CU
Perigee: 1,973.0 km
Apogee: 5,210.8 km
Inclination: 86.3 °
Period: 164.9 minutes
Semi major axis: 9962 km
RCS: 0.1919 m2 (medium)
Launch date: May 9, 1963
Source: United States (US)
Launch site: AIR FORCE WESTERN TEST RANGE (AFWTR)
aabbcc
Your satellite tracking list
Your tracking list is empty




NASA's NSSDC Master Catalog

Two Line Element Set (TLE):
1  5702U 63014CU  22330.53506231 -.00000911  00000-0 -10507+0 0  9998
2  5702  86.3192 255.0081 1624897 169.4681 194.5039  8.73020009709015
Source of the keplerian elements: AFSPC